Location: Shannon
(40.5500°S, 175.4167°E)
Time: 21:25:57
(UTC+00:00)

ATLAS 3B R/B - Pass Details

Date: 17 November 2025
Orbit: 935 x 1258 km, 63.8° (Epoch: 06 December)

Event Time Altitude Azimuth Distance (km) Brightness Sun altitude
Rises 14:04:43 0° 219° (SW) 3,641 5.8 -24.0°
Reaches altitude 10° 14:07:16 10° 223° (SW) 2,709 5.0 -23.7°
Maximum altitude 14:13:23 53° 297° (WNW) 1,207 2.6 -23.1°
Enters shadow 14:14:46 45° 337° (NNW) 1,336 2.7 -23.0°
